Weather History for Torrington, WY

Change the Weather History Date:

Wednesday, December 5, 2012

  Actual Average Record
Temperature  
Mean Temperature 54 °F 28 °F  
Max Temperature 67 °F 41 °F 67 °F (2012)
Min Temperature 40 °F 15 °F -17 °F (2013)
Degree Days  
Heating Degree Days 11 37  
Month to date heating degree days 82 182  
Since 1 July heating degree days 1425 1765  
Cooling Degree Days 0 0  
Month to date cooling degree days 0 0  
Year to date cooling degree days 1021 678  
Growing Degree Days 6 (Base 50)    
Moisture  
Dew Point 29 °F    
Average Humidity 37    
Maximum Humidity 50    
Minimum Humidity 24    
Precipitation  
Precipitation T in 0.01 in 0.06 in (2009)
Month to date precipitation T 0.07  
Year to date precipitation 7.00 13.91  
Sea Level Pressure  
Sea Level Pressure 29.83 in    
Wind  
Wind Speed 14 mph (WSW)    
Max Wind Speed 31 mph    
Max Gust Speed 43 mph    
Visibility 10 miles    
Events Rain    
T = Trace of Precipitation, MM = Missing Value Source: NWS Daily Summary

Daily Weather History Graph

Daily Weather History Graph

Search for Another Location

Airport:

Trip Planner

Search our weather history database for the weather conditions in past years. The results will help you decide how hot, cold, wet, or windy it might be!

Date:

Astronomy

Dec. 05, 2012 Rise Set
Actual Time 7:09 AM MST 4:25 PM MST
Civil Twilight 6:38 AM MST 4:56 PM MST
Nautical Twilight 6:03 AM MST 5:31 PM MST
Astronomical Twilight 5:29 AM MST 6:05 PM MST
Moon 11:22 PM MST (12/5) 11:29 AM MST (12/5)
Length of Visible Light 10h 17m
Length of Day
9h 15m
Waning Gibbous, 59% of the Moon is Illuminated
Dec 5
Waning Gibbous
Dec 6
Last Quarter
Dec 13
New
Dec 19
First Quarter
Dec 28
Full

Hourly Weather History & Observations

Time (MST) Temp. Windchill Dew Point Humidity Pressure Visibility Wind Dir Wind Speed Gust Speed Precip Events Conditions
12:53 AM 46.9 °F - 28.9 °F 50% 30.02 in 10.0 mi SSE 3.5 mph - N/A   Clear
1:53 AM 46.9 °F - 27.0 °F 46% 30.02 in 10.0 mi South 8.1 mph - N/A   Clear
2:53 AM 45.0 °F 41.2 °F 24.1 °F 44% 29.99 in 10.0 mi South 6.9 mph - N/A   Clear
3:53 AM 46.0 °F 40.6 °F 24.1 °F 42% 29.96 in 10.0 mi South 11.5 mph - N/A   Clear
4:53 AM 45.0 °F 41.2 °F 23.0 °F 42% 29.96 in 10.0 mi SW 6.9 mph - N/A   Clear
5:53 AM 46.0 °F 41.4 °F 26.1 °F 46% 29.94 in 10.0 mi SW 9.2 mph - N/A   Clear
7:53 AM 52.0 °F - 30.0 °F 43% 29.90 in 10.0 mi Calm Calm - N/A   Clear
8:53 AM 53.1 °F - 30.0 °F 41% 29.89 in 10.0 mi WSW 10.4 mph - N/A   Clear
9:53 AM 54.0 °F - 30.0 °F 40% 29.86 in 10.0 mi WSW 12.7 mph - N/A   Clear
10:53 AM 60.1 °F - 28.0 °F 30% 29.82 in 10.0 mi West 13.8 mph 23.0 mph N/A   Clear
11:53 AM 62.1 °F - 28.9 °F 29% 29.78 in 10.0 mi WSW 11.5 mph - N/A   Clear
12:53 PM 66.0 °F - 28.0 °F 24% 29.72 in 10.0 mi West 24.2 mph 33.4 mph N/A   Clear
1:53 PM 66.9 °F - 28.9 °F 24% 29.70 in 10.0 mi West 19.6 mph 28.8 mph N/A   Clear
2:53 PM 64.0 °F - 27.0 °F 25% 29.70 in 10.0 mi West 25.3 mph 42.6 mph N/A   Partly Cloudy
3:53 PM 62.1 °F - 27.0 °F 26% 29.72 in 10.0 mi West 20.7 mph 28.8 mph N/A   Partly Cloudy
4:53 PM 59.0 °F - 30.0 °F 33% 29.73 in 10.0 mi WSW 27.6 mph 38.0 mph 0.00 in Rain Light Rain
5:53 PM 57.9 °F - 28.0 °F 32% 29.75 in 10.0 mi West 21.9 mph 35.7 mph 0.00 in   Mostly Cloudy
6:53 PM 55.9 °F - 28.9 °F 36% 29.76 in 10.0 mi West 18.4 mph 25.3 mph N/A   Partly Cloudy
7:53 PM 55.9 °F - 28.9 °F 36% 29.76 in 10.0 mi West 21.9 mph 29.9 mph N/A   Clear
8:53 PM 55.0 °F - 32.0 °F 42% 29.77 in 10.0 mi WNW 20.7 mph 27.6 mph N/A   Mostly Cloudy
9:53 PM 53.1 °F - 32.0 °F 45% 29.79 in 10.0 mi West 16.1 mph 28.8 mph N/A   Partly Cloudy
10:53 PM 51.1 °F - 33.1 °F 50% 29.80 in 10.0 mi WNW 10.4 mph 19.6 mph N/A   Partly Cloudy
11:53 PM 48.9 °F - 33.1 °F 54% 29.80 in 10.0 mi WNW 13.8 mph - N/A   Scattered Clouds